McComb, MS

12:43 AM CDT on June 23, 2017 (GMT -0500)
McComb-Pike County-Lewis

Weather History for KMCB - May, 2012

Change the Weather History Date:

Friday, May 25, 2012

  Actual Average Record
Temperature  
Mean Temperature 76 °F -  
Max Temperature 90 °F 85 °F 93 °F (2000)
Min Temperature 64 °F 63 °F 47 °F (1979)
Cooling Degree Days 12    
Growing Degree Days 26 (Base 50)    
Moisture  
Dew Point 67 °F    
Average Humidity 75    
Maximum Humidity 100    
Minimum Humidity 40    
Precipitation  
Precipitation 0.00 in - - ()
Sea Level Pressure  
Sea Level Pressure 30.01 in    
Wind  
Wind Speed 4 mph (SSE)    
Max Wind Speed 10 mph    
Max Gust Speed -    
Visibility 8 miles    
Events      
Averages and records for this station are not official NWS values.
T = Trace of Precipitation, MM = Missing Value Source: NWS Daily Summary

Daily Weather History Graph

Daily Weather History Graph

Search for Another Location

Airport or City:

Trip Planner

Search our weather history database for the weather conditions in past years. The results will help you decide how hot, cold, wet, or windy it might be!

Date:

Astronomy

May. 25, 2012 Rise Set
Actual Time 6:00 AM CDT 7:57 PM CDT
Civil Twilight 5:33 AM CDT 8:24 PM CDT
Nautical Twilight 5:00 AM CDT 8:57 PM CDT
Astronomical Twilight 4:25 AM CDT 9:32 PM CDT
Moon 9:55 AM CDT (5/25) 11:40 PM CDT (5/25)
Length of Visible Light 14h 51m
Length of Day
13h 56m
Waxing Crescent, 20% of the Moon is Illuminated
May 25
Waxing Crescent
May 28
First Quarter
Jun 4
Full
Jun 11
Last Quarter
Jun 19
New

Hourly Weather History & Observations

Time (CDT) Temp. Heat Index Dew Point Humidity Pressure Visibility Wind Dir Wind Speed Gust Speed Precip Events Conditions
12:53 AM 71.1 °F - 66.9 °F 87% 29.90 in 10.0 mi South 5.8 mph - N/A   Clear
1:53 AM 69.1 °F - 66.0 °F 90% 29.90 in 10.0 mi South 3.5 mph - N/A   Clear
2:53 AM 69.1 °F - 66.9 °F 93% 29.91 in 9.0 mi Calm Calm - N/A   Partly Cloudy
3:53 AM 66.9 °F - 66.0 °F 97% 29.92 in 6.0 mi Calm Calm - N/A   Clear
4:53 AM 66.9 °F - 66.0 °F 97% 29.94 in 5.0 mi Calm Calm - N/A   Clear
5:45 AM 64.4 °F - 64.4 °F 100% 29.98 in 2.5 mi Calm Calm - N/A   Clear
5:53 AM 64.9 °F - 64.0 °F 97% 29.97 in 5.0 mi Calm Calm - N/A   Clear
6:53 AM 66.0 °F - 64.9 °F 96% 30.00 in 4.0 mi Calm Calm - N/A   Clear
7:53 AM 70.0 °F - 68.0 °F 93% 30.02 in 3.0 mi Calm Calm - N/A   Partly Cloudy
8:13 AM 71.6 °F - 69.8 °F 94% 30.04 in 4.0 mi Calm Calm - N/A   Mostly Cloudy
8:32 AM 73.4 °F - 69.8 °F 88% 30.05 in 5.0 mi Calm Calm - N/A   Partly Cloudy
8:53 AM 73.9 °F - 70.0 °F 87% 30.04 in 7.0 mi SE 3.5 mph - N/A   Clear
9:53 AM 79.0 °F - 70.0 °F 74% 30.04 in 10.0 mi SSE 5.8 mph - N/A   Scattered Clouds
10:41 AM 80.6 °F 83.9 °F 69.8 °F 70% 30.06 in 10.0 mi South 10.4 mph - N/A   Mostly Cloudy
10:51 AM 80.6 °F 83.9 °F 69.8 °F 70% 30.07 in 10.0 mi SSE 6.9 mph - N/A   Scattered Clouds
10:53 AM 81.0 °F 84.1 °F 69.1 °F 67% 30.05 in 10.0 mi SSW 6.9 mph - N/A   Scattered Clouds
11:53 AM 84.0 °F 87.0 °F 68.0 °F 58% 30.05 in 10.0 mi Variable 4.6 mph - N/A   Partly Cloudy
12:53 PM 84.9 °F 87.1 °F 66.0 °F 53% 30.05 in 10.0 mi SSE 5.8 mph - N/A   Clear
1:53 PM 88.0 °F 90.7 °F 66.9 °F 49% 30.04 in 10.0 mi South 8.1 mph - N/A   Clear
2:53 PM 88.0 °F 88.7 °F 63.0 °F 43% 30.03 in 10.0 mi SSE 10.4 mph - N/A   Clear
3:53 PM 89.1 °F 90.3 °F 64.0 °F 43% 30.02 in 10.0 mi SSE 10.4 mph - N/A   Clear
4:53 PM 89.1 °F 89.3 °F 62.1 °F 40% 30.01 in 10.0 mi South 9.2 mph - N/A   Clear
5:53 PM 87.1 °F 88.3 °F 64.0 °F 46% 30.01 in 10.0 mi SSE 8.1 mph - N/A   Partly Cloudy
6:53 PM 84.0 °F 86.3 °F 66.0 °F 55% 30.02 in 10.0 mi South 6.9 mph - N/A   Clear
7:53 PM 81.0 °F 83.8 °F 68.0 °F 65% 30.03 in 10.0 mi South 6.9 mph - N/A   Clear
8:53 PM 77.0 °F - 68.0 °F 74% 30.04 in 10.0 mi Calm Calm - N/A   Clear
9:53 PM 75.0 °F - 69.1 °F 82% 30.06 in 10.0 mi Calm Calm - N/A   Clear
10:53 PM 72.0 °F - 68.0 °F 87% 30.07 in 9.0 mi Calm Calm - N/A   Clear
11:53 PM 70.0 °F - 66.9 °F 90% 30.06 in 8.0 mi Calm Calm - N/A   Clear